Location: Sauerland
(51.1981°N, 7.8053°E)
Time: 15:10:43
(UTC+01:00)

ISS - Pass Details

Date: 18 February 2026
Orbit: 416 x 427 km, 51.6° (Epoch: 5 March)

Event Time Altitude Azimuth Distance (km) Brightness Sun altitude
Exits shadow 06:27:24 16° 247° (WSW) 1,199 -2.0 -11.4°
Maximum altitude 06:30:01 72° 164° (SSE) 441 -3.6 -11.0°
Drops below altitude 10° 06:33:21 10° 79° (E) 1,494 0.4 -10.5°
Sets 06:35:27 0° 78° (ENE) 2,359 1.7 -10.2°
